EW9634 Weather Reports


time (UTC)temp
C
wind
direction
speed
KPH
gust
KPH
rain 1hr
cm
rain 24hr
cm
rain mn
cm
humidity
%
barometer
mb
20260510220025 19 23 4.8 8.0 0.00 0.00 0.00 38 1018.3
20260510215024 20 68 9.7 12.9 0.00 0.00 0.00 37 1018.4
20260510214003 19 23 8.0 12.9 0.00 0.00 0.00 40 1018.2
20260510213004 20 338 12.9 14.5 0.00 0.00 0.00 37 1018.4
20260510212024 19 0 9.7 14.5 0.00 0.00 0.00 35 1018.4
20260510211003 19 0 4.8 6.4 0.00 0.00 0.00 36 1018.4
20260510210009 19 23 8.0 11.3 0.00 0.00 0.00 37 1018.6
20260510205003 18 68 9.7 16.1 0.00 0.00 0.00 39 1018.5
20260510204004 18 338 12.9 19.3 0.00 0.00 0.00 39 1018.7
20260510203004 18 0 9.7 14.5 0.00 0.00 0.00 35 1018.5
20260510202003 18 23 11.3 16.1 0.00 0.00 0.00 36 1018.8
20260510201003 18 45 8.0 12.9 0.00 0.00 0.00 39 1018.6
20260510200025 18 23 11.3 17.7 0.00 0.00 0.00 39 1018.7
20260510195024 18 23 8.0 14.5 0.00 0.00 0.00 39 1018.9
20260510194003 18 23 6.4 9.7 0.00 0.00 0.00 43 1019.1
20260510193003 18 23 16.1 20.9 0.00 0.00 0.00 38 1019.2
20260510192003 18 0 9.7 14.5 0.00 0.00 0.00 38 1019.2
20260510191004 18 338 4.8 6.4 0.00 0.00 0.00 40 1019.2
20260510190027 18 23 11.3 17.7 0.00 0.00 0.00 39 1019.1
20260510185003 18 0 12.9 19.3 0.00 0.00 0.00 40 1018.9
20260510184003 18 0 6.4 9.7 0.00 0.00 0.00 37 1019.0
20260510183003 18 45 6.4 9.7 0.00 0.00 0.00 40 1019.0
20260510182004 17 45 3.2 4.8 0.00 0.00 0.00 34 1019.0
20260510181003 18 23 6.4 8.0 0.00 0.00 0.00 37 1019.1
20260510180024 18 68 3.2 6.4 0.00 0.00 0.00 43 1019.3
20260510175024 17 23 4.8 6.4 0.00 0.00 0.00 35 1019.4
20260510174003 17 23 3.2 6.4 0.00 0.00 0.00 40 1019.1
20260510173004 17 68 8.0 12.9 0.00 0.00 0.00 39 1019.3
20260510172003 17 23 6.4 8.0 0.00 0.00 0.00 38 1019.1
20260510171144 17 23 12.9 16.1 0.00 0.00 0.00 42 1019.3
20260510170100 16 23 11.3 14.5 0.00 0.00 0.00 39 1019.2
20260510165003 17 23 8.0 12.9 0.00 0.00 0.00 42 1019.2
20260510164003 17 0 8.0 11.3 0.00 0.00 0.00 38 1019.1
20260510163004 17 45 8.0 11.3 0.00 0.00 0.00 41 1018.9
20260510162003 17 45 12.9 20.9 0.00 0.00 0.00 43 1018.9
20260510161003 17 0 14.5 19.3 0.00 0.00 0.00 41 1018.8
20260510160008 16 68 4.8 8.0 0.00 0.00 0.00 47 1018.7
20260510155003 16 68 9.7 16.1 0.00 0.00 0.00 43 1018.7
20260510154003 16 68 11.3 17.7 0.00 0.00 0.00 44 1018.7
20260510153023 16 45 8.0 11.3 0.00 0.00 0.00 45 1018.7
20260510152003 16 45 6.4 9.7 0.00 0.00 0.00 47 1018.5
20260510151003 15 45 9.7 14.5 0.00 0.00 0.00 47 1018.3
20260510150023 15 45 4.8 9.7 0.00 0.00 0.00 49 1018.4
20260510145003 15 45 8.0 12.9 0.00 0.00 0.00 48 1018.3
20260510144003 14 45 11.3 17.7 0.00 0.00 0.00 47 1018.2
20260510143003 14 45 6.4 9.7 0.00 0.00 0.00 47 1018.4
20260510142003 14 45 9.7 17.7 0.00 0.00 0.00 47 1018.4
20260510141023 13 45 8.0 14.5 0.00 0.00 0.00 46 1018.4
20260510140004 14 68 6.4 12.9 0.00 0.00 0.00 48 1018.5
20260510135003 14 45 6.4 8.0 0.00 0.00 0.00 49 1018.3
20260510134003 13 45 8.0 14.5 0.00 0.00 0.00 48 1018.1
20260510133002 13 23 6.4 11.3 0.00 0.00 0.00 50 1018.1
20260510132002 13 23 12.9 19.3 0.00 0.00 0.00 47 1017.9
20260510131002 13 23 11.3 17.7 0.00 0.00 0.00 47 1017.9
20260510130023 13 45 11.3 17.7 0.00 0.00 0.00 48 1017.6
20260510125002 13 23 11.3 16.1 0.00 0.00 0.00 48 1017.4
20260510124002 13 23 11.3 16.1 0.00 0.00 0.00 48 1017.2
20260510123004 13 23 11.3 17.7 0.00 0.00 0.00 49 1016.8
20260510122023 13 45 6.4 9.7 0.00 0.00 0.00 49 1016.9
20260510121003 13 45 6.4 12.9 0.00 0.00 0.00 50 1016.4
20260510120008 13 45 6.4 12.9 0.00 0.00 0.00 49 1016.4
20260510115002 13 45 11.3 14.5 0.00 0.00 0.00 50 1015.9
20260510114042 13 45 12.9 19.3 0.00 0.00 0.00 49 1015.8
20260510113002 13 23 12.9 20.9 0.00 0.00 0.00 49 1015.8
20260510112002 13 45 6.4 8.0 0.00 0.00 0.00 49 1015.5
20260510111002 13 45 12.9 22.5 0.00 0.00 0.00 48 1015.5
20260510110003 13 45 12.9 16.1 0.00 0.03 0.00 47 1015.5
20260510105002 14 23 9.7 16.1 0.00 0.03 0.00 46 1015.5
20260510104002 14 45 8.0 11.3 0.00 0.03 0.00 48 1015.3
20260510103002 14 45 8.0 11.3 0.00 0.03 0.00 49 1015.2
20260510102003 14 45 8.0 11.3 0.00 0.03 0.00 50 1015.0
20260510101002 14 23 11.3 17.7 0.00 0.03 0.00 51 1014.9
20260510100002 14 45 9.7 14.5 0.00 0.03 0.00 51 1014.4
20260510095022 15 45 8.0 14.5 0.00 0.03 0.00 51 1014.3
20260510094022 15 45 12.9 19.3 0.00 0.03 0.00 51 1014.4
20260510093002 15 45 9.7 16.1 0.00 0.03 0.00 50 1014.4
20260510092002 15 23 16.1 24.1 0.00 0.03 0.00 51 1014.4
20260510091023 15 23 17.7 22.5 0.00 0.03 0.00 51 1014.3
20260510090023 16 45 6.4 9.7 0.00 0.03 0.00 55 1014.1
20260510085002 16 23 8.0 14.5 0.00 0.03 0.00 56 1013.9
20260510084002 16 45 11.3 17.7 0.00 0.03 0.00 58 1013.6
20260510083002 16 68 14.5 22.5 0.00 0.03 0.00 58 1013.6
20260510082022 16 45 12.9 19.3 0.00 0.03 0.00 58 1013.5
20260510081022 16 23 9.7 16.1 0.00 0.03 0.00 58 1013.2
20260510080002 17 45 9.7 16.1 0.00 0.03 0.00 59 1013.2
20260510075002 17 23 14.5 16.1 0.00 0.03 0.00 59 1013.4
20260510074002 17 0 4.8 6.4 0.00 0.03 0.00 62 1013.2
20260510073002 17 45 3.2 3.2 0.00 0.03 0.00 62 1013.0
20260510072002 17 45 4.8 6.4 0.00 0.03 0.00 62 1013.0
20260510071002 17 68 1.6 3.2 0.00 0.03 0.00 62 1012.8
20260510070002 17 23 4.8 6.4 0.00 0.03 0.00 59 1012.8
20260510065004 17 0 4.8 6.4 0.00 0.03 0.00 59 1012.8
20260510064003 17 45 3.2 4.8 0.00 0.03 0.00 60 1012.6
20260510063005 17 68 4.8 6.4 0.00 0.03 0.00 58 1012.2
20260510062004 18 68 4.8 6.4 0.00 0.03 0.00 56 1012.4
20260510061044 18 68 9.7 12.9 0.00 0.03 0.00 56 1012.3
20260510060040 18 68 3.2 4.8 0.00 0.03 0.00 56 1012.5
20260510055004 18 68 4.8 8.0 0.00 0.03 0.00 55 1012.4
20260510054004 18 90 4.8 4.8 0.00 0.03 0.00 55 1012.3
20260510053005 19 68 9.7 16.1 0.00 0.03 0.00 55 1012.0
20260510052004 19 68 3.2 4.8 0.00 0.03 0.00 57 1012.1
20260510051004 19 90 11.3 14.5 0.00 0.03 0.00 58 1012.1
20260510050129 19 0.0 1.6 0.00 0.03 0.00 60 1011.8
20260510045102 20 158 4.8 8.0 0.00 0.03 0.03 59 1011.5
20260510044102 20 45 3.2 4.8 0.00 0.03 0.03 59 1010.8
20260510043102 20 45 3.2 6.4 0.00 0.03 0.03 59 1010.2
20260510042103 19 45 3.2 6.4 0.00 0.03 0.03 60 1010.1
20260510041122 19 23 3.2 4.8 0.00 0.03 0.03 61 1009.9
20260510035102 19 68 3.2 4.8 0.00 0.03 0.03 61 1009.7
20260510034102 19 45 3.2 4.8 0.00 0.03 0.03 61 1009.7
20260510033102 19 68 1.6 4.8 0.00 0.03 0.03 64 1009.7
20260510032102 19 90 4.8 4.8 0.00 0.03 0.03 62 1009.6
20260510031102 20 293 1.6 1.6 0.00 0.03 0.03 63 1009.7
20260510025122 21 0 8.0 9.7 0.00 0.03 0.03 55 1009.6
20260510024122 21 338 6.4 9.7 0.00 0.03 0.03 55 1009.4
20260510023102 21 23 3.2 4.8 0.00 0.03 0.03 54 1008.9
20260510022102 21 45 4.8 8.0 0.00 0.03 0.03 53 1008.4
20260510021102 21 23 9.7 12.9 0.00 0.03 0.03 53 1008.4
20260510015102 21 0 9.7 12.9 0.00 0.03 0.03 51 1008.2
20260510014101 22 0 12.9 17.7 0.00 0.03 0.03 51 1007.8
20260510013102 21 0 6.4 9.7 0.00 0.03 0.03 52 1007.6
20260510012102 22 45 4.8 6.4 0.00 0.03 0.03 52 1007.3
20260510011101 22 45 4.8 6.4 0.00 0.03 0.03 50 1007.3
20260510010106 23 23 4.8 8.0 0.00 0.03 0.03 48 1007.2
20260510005101 23 45 6.4 12.9 0.00 0.03 0.03 47 1007.1
20260510004004 23 338 17.7 24.1 0.00 0.03 0.03 46 1007.0
20260510003005 23 0 19.3 25.7 0.00 0.03 0.03 46 1006.7
20260510002004 24 338 14.5 19.3 0.00 0.03 0.03 45 1006.6
20260510001004 24 338 19.3 24.1 0.00 0.03 0.03 43 1006.4
20260510000053 25 0 25.7 32.2 0.00 0.03 0.03 42 1006.5
20260509235004 25 315 12.9 17.7 0.00 0.03 0.03 44 1006.0
20260509234024 25 338 14.5 17.7 0.00 0.03 0.03 43 1005.9
20260509233004 25 338 16.1 19.3 0.00 0.03 0.03 43 1006.0
20260509232003 26 293 6.4 8.0 0.00 0.03 0.03 42 1006.0
20260509231003 26 270 9.7 14.5 0.00 0.03 0.03 39 1005.9
20260509230009 26 270 11.3 17.7 0.00 0.03 0.03 40 1005.8
20260509225003 26 270 6.4 11.3 0.00 0.03 0.03 42 1005.8
20260509224004 26 270 6.4 11.3 0.00 0.03 0.03 42 1005.8
20260509223004 26 270 9.7 12.9 0.00 0.03 0.03 40 1005.7
20260509222024 26 270 9.7 14.5 0.00 0.03 0.03 39 1005.7
20260509221004 27 248 12.9 17.7 0.00 0.03 0.03 39 1005.6